DW6178 Weather Reports


Display with metric or nautical units.
time (UTC)temp
F
wind
direction
speed
MPH
gust
MPH
rain 1hr
in
rain 24hr
in
rain mn
in
humidity
%
barometer
mb
20260505210025 38 165 2.0 9.0 0.00 0.38 0.26 94 1015.7
20260505204523 39 187 3.0 7.0 0.00 0.38 0.26 94 1015.7
20260505203006 39 242 2.0 9.0 0.00 0.38 0.26 94 1015.7
20260505201504 39 239 2.0 5.0 0.00 0.38 0.26 94 1015.7
20260505200047 39 197 1.0 7.0 0.00 0.38 0.26 94 1015.7
20260505194546 39 205 2.0 5.0 0.00 0.38 0.26 94 1015.8
20260505193028 38 138 3.0 8.0 0.00 0.38 0.26 94 1015.8
20260505191527 38 211 2.0 7.0 0.00 0.38 0.26 94 1015.8
20260505190007 38 250 1.0 7.0 0.00 0.38 0.26 94 1015.8
20260505184507 38 194 2.0 7.0 0.00 0.38 0.26 94 1015.8
20260505183145 38 193 0.0 7.0 0.00 0.38 0.26 94 1015.7
20260505181548 38 256 1.0 11.0 0.00 0.38 0.26 94 1015.6
20260505180048 38 262 2.0 7.0 0.00 0.38 0.26 94 1015.6
20260505174528 37 212 2.0 7.0 0.00 0.38 0.26 94 1015.4
20260505173036 37 248 1.0 9.0 0.00 0.38 0.26 94 1015.1
20260505171512 37 266 1.0 6.0 0.00 0.38 0.26 94 1014.9
20260505170017 37 270 1.0 13.0 0.00 0.38 0.26 94 1014.7
20260505164510 38 248 1.0 7.0 0.01 0.38 0.26 94 1014.4
20260505163011 37 232 3.0 7.0 0.01 0.38 0.26 94 1014.4
20260505161508 37 288 2.0 8.0 0.01 0.38 0.26 94 1014.2
20260505153006 37 183 2.0 9.0 0.01 0.37 0.25 94 1014.0
20260505151548 37 239 1.0 5.0 0.01 0.37 0.25 94 1013.9
20260505124518 37 191 2.0 5.0 0.01 0.31 0.19 94 1013.4
20260505123014 37 222 1.0 3.0 0.05 0.31 0.19 94 1013.5
20260505121557 37 250 1.0 3.0 0.06 0.31 0.19 94 1013.4
20260505120111 38 272 1.0 4.0 0.06 0.31 0.19 94 1013.4
20260505114538 38 198 1.0 6.0 0.06 0.30 0.18 94 1013.3
20260505113044 38 226 2.0 5.0 0.04 0.26 0.14 94 1013.4
20260505111518 38 233 1.0 5.0 0.07 0.25 0.13 94 1013.4
20260505101540 37 201 1.0 3.0 0.02 0.18 0.06 94 1013.3
20260505100041 37 215 1.0 5.0 0.01 0.17 0.05 94 1013.4
20260505094519 38 248 1.0 5.0 0.00 0.16 0.04 94 1013.5
20260505093017 38 223 2.0 7.0 0.00 0.16 0.04 94 1013.5
20260505091605 38 300 2.0 5.0 0.00 0.16 0.04 94 1013.7
20260505090056 38 245 1.0 4.0 0.00 0.16 0.04 94 1014.0
20260505084537 37 243 1.0 2.0 0.00 0.16 0.04 94 1014.1
20260505083034 36 283 0.0 2.0 0.00 0.16 0.04 94 1014.4
20260505081516 36 284 1.0 2.0 0.01 0.16 0.04 94 1014.5
20260505080014 36 288 1.0 3.0 0.04 0.16 0.04 94 1014.4
20260505074559 37 266 0.0 4.0 0.07 0.16 0.04 94 1014.6
20260505073110 38 243 1.0 4.0 0.07 0.16 0.04 94 1014.6
20260505071535 38 235 1.0 4.0 0.07 0.15 0.03 94 1014.7
20260505070031 37 222 1.0 5.0 0.06 0.12 0.12 94 1014.6
20260505064531 37 195 1.0 6.0 0.04 0.09 0.09 94 1014.6
20260505063012 37 232 1.0 6.0 0.04 0.09 0.09 94 1014.8
20260505061557 38 287 1.0 2.0 0.03 0.08 0.08 94 1014.8
20260505060052 38 297 0.0 2.0 0.02 0.06 0.06 94 1014.9
20260505054557 38 293 1.0 3.0 0.02 0.05 0.05 94 1015.1
20260505053036 38 288 1.0 2.0 0.03 0.05 0.05 94 1015.2
20260505051517 38 277 1.0 3.0 0.04 0.05 0.05 94 1015.3
20260505041537 37 282 1.0 3.0 0.01 0.01 0.01 94 1015.4
20260505040037 36 297 1.0 3.0 0.00 0.00 0.00 93 1015.5
20260505034519 36 285 1.0 3.0 0.00 0.00 0.00 93 1015.2
20260505033021 37 291 1.0 4.0 0.00 0.00 0.00 94 1015.3
20260505031611 38 278 1.0 3.0 0.00 0.00 0.00 94 1014.9
20260505030059 38 292 1.0 3.0 0.00 0.00 0.00 94 1015.0
20260505024542 38 296 2.0 4.0 0.00 0.00 0.00 93 1014.8
20260505023040 38 277 2.0 5.0 0.00 0.00 0.00 93 1014.9
20260505021525 38 295 1.0 4.0 0.00 0.00 0.00 93 1014.9
20260505020028 38 263 1.0 8.0 0.00 0.00 0.00 93 1014.9
20260505014501 39 250 1.0 5.0 0.00 0.00 0.00 93 1015.2
20260505013000 39 165 0.0 4.0 0.00 0.00 0.00 93 1015.2
20260505011543 39 289 1.0 6.0 0.00 0.00 0.00 93 1015.1
20260505010042 39 162 2.0 6.0 0.00 0.00 0.00 93 1015.2
20260505004542 40 288 1.0 4.0 0.00 0.00 0.00 93 1015.3
20260505003022 40 293 1.0 4.0 0.00 0.00 0.00 93 1015.1
20260505001506 40 183 1.0 7.0 0.00 0.00 0.00 93 1015.1
20260505000008 40 179 0.0 11.0 0.00 0.00 0.00 93 1015.1
20260504234554 40 281 1.0 5.0 0.00 0.00 0.00 93 1015.1
20260504233056 40 295 1.0 7.0 0.00 0.00 0.00 93 1015.1
20260504231552 40 181 2.0 6.0 0.00 0.00 0.00 93 1015.0
20260504230105 40 297 2.0 8.0 0.00 0.00 0.00 93 1014.9
20260504224552 40 246 2.0 5.0 0.00 0.00 0.00 93 1015.1
20260504223051 41 233 1.0 7.0 0.00 0.00 0.00 93 1015.1
20260504221601 41 165 0.0 4.0 0.00 0.00 0.00 93 1015.4
20260504220050 41 253 1.0 3.0 0.00 0.00 0.00 93 1015.3
20260504214542 41 163 1.0 5.0 0.00 0.00 0.00 93 1015.5
20260504213042 41 288 1.0 5.0 0.00 0.00 0.00 93 1015.7
20260504211535 41 289 1.0 5.0 0.00 0.00 0.00 93 1015.7